Regional Weather Roundup
Issued by NWS

Home | Current Version | Previous Version | Text Only | Print | Product List | Glossary On
Versions: 1 2 3 4 5 6 7 8 9 10 11 12 13 14 15 16 17 18 19 20 21 22 23 24 25 26 27 28 29 30 31 32 33 34 35 36 37 38 39 40 41 42 43 44 45 46 47 48 49 50
000
ASUS43 KDMX 011404
RWRIA

WEATHER ROUNDUP FOR IOWA
NATIONAL WEATHER SERVICE DES MOINES IA
  ISSUED BY NWS QUAD CITIES IA IL
800 AM CST SUN FEB 01 2015

NOTE: "FAIR" INDICATES FEW OR NO CLOUDS BELOW 12,000 FEET WITH NO
SIGNIFICANT WEATHER AND/OR OBSTRUCTIONS TO VISIBILITY.

* - THESE STATIONS ARE NOT NWS STATIONS...THUS NOT UNDER NWS
QUALITY CONTROL.  THEY ALSO DO NOT REPORT WEATHER SUCH
AS PRECIPITATION OR FOG.

IAZ001>003-012>014-020>022-031>034-043>046-011500-
   NORTHWEST IOWA

CITY           SKY/WX    TMP DP  RH WIND       PRES   REMARKS
CARROLL *      SNOW      21  19  93 N26G38    29.89R VSB 1/2 WCI   4
CHEROKEE *     LGT SNOW  17  15  92 N16G30    30.01R VSB 1   WCI   2
DENNISON *     HVY RAIN  19  19 100 NE23G32   29.90R VSB 1/2 WCI   2
LE MARS *      LGT SNOW  18  14  86 N24       30.07R VSB 3/4 WCI   0
ORANGE CITY *  LGT SNOW  18  12  79 N21G35    30.05R VSB 1   WCI   1
SHELDON *      SNOW      14  12  92 N29G38    30.05R VSB 1/2 WCI  -7
SIOUX CITY     LGT SNOW  19  14  81 N23G36    30.05R VSB 3/4 WCI   2
SPENCER        LGT SNOW  16  11  80 N29G37    30.03R WCI  -4
STORM LAKE *   SNOW      18  14  86 N30G40    29.96R VSB 1/2 WCI  -2
$$

IAZ055>058-069>071-079>083-090>094-011500-
   SOUTHWEST IOWA

CITY           SKY/WX    TMP DP  RH WIND       PRES   REMARKS
ATLANTIC *     MIX PCPN  27  25  93 N22G31    29.82R VSB 1/2 WCI  12
AUDUBON *      LGT SNOW  21  19  93 N17G25    29.85R VSB 3/4 WCI   7
CLARINDA *     LGT SNOW  32  32 100 N13       29.80R WCI  22
COUNCIL BLFS * SNOW      23  23 100 N24       29.87R VSB 1/2 WCI   7
CRESTON *      LGT SNOW  32  32 100 N9        29.76R WCI  24
HARLAN *       HVY RAIN  21  21 100 N25G36    29.90R VSB 1/2 WCI   4
LAMONI         LGT SNOW  32  31  96 NE7       29.73S FOG     WCI  26
RED OAK *      MIX PCPN  28  28 100 N21       29.82R VSB 3/4 WCI  15
SHENANDOAH *   MIX PCPN  30  30 100 N21G28    29.82R VSB 3/4 WCI  17
$$

IAZ047>049-059>061-072>074-084-011500-
   CENTRAL IOWA

CITY           SKY/WX    TMP DP  RH WIND       PRES   REMARKS
AMES           LGT SNOW  27  24  89 NE20G30   29.84R FOG     WCI  13
ANKENY *       LGT SNOW  30  30 100 MISG      29.81R VSB 1
BOONE *        FOG       27  27 100 MISG      29.83R VSB 1
CHARITON *     LGT SNOW  32  32 100 NE7       29.75F WCI  26
DES MOINES     LGT SNOW  33  30  88 NE12      29.79S VSB 3/4 WCI  24
GRINNELL *       N/A     31  30  97 NE17      29.81S WCI  19
KNOXVILLE *    LGT SNOW  32  30  93 E8        29.76S WCI  25
MARSHALLTOWN   SNOW      26  23  88 NE28      29.84R VSB 1/4 WCI  10
NEWTON *       LGT SNOW  30  30 100 NE17      29.80R VSB 3/4 WCI  18
PELLA *        HVY RAIN  32  32 100 E5        29.80R WCI  28
PERRY *        LGT SNOW  28  28  99 NE14      29.83R VSB 1   WCI  17
$$

IAZ004>006-015-016-023>025-035-036-011500-
   NORTH CENTRAL IOWA

CITY           SKY/WX    TMP DP  RH WIND       PRES   REMARKS
ALGONA *       SNOW      18  16  93 NE29G38   29.98S VSB 1/2 WCI  -2
CLARION *      SNOW      21  21 100 NE31G38   29.92R VSB 1/4 WCI   3
ESTHERVILLE    FOG       15  12  88 N24G36    30.04R VSB 1   WCI  -4
FORT DODGE *   CLOUDY    19  16  86 CALM      29.93R VSB 3/4
MASON CITY     SNOW      18  15  88 NE30G37   29.99R VSB 1/2 WCI  -1
FOREST CITY *  LGT SNOW  19  16  86 NE18G26   29.99R VSB 1   WCI   4
WEBSTER CITY * MIX PCPN  23  25 100 NE31G38   29.87R VSB 1/2 WCI   5
IOWA FALLS *   LGT SNOW  23  21  90 NE20G25   29.89S WCI   9
$$

IAZ007>011-017>019-026>030-037>042-050>054-066-011500-
   NORTHEAST IOWA

CITY           SKY/WX    TMP DP  RH WIND       PRES   REMARKS
CEDAR RAPIDS   LGT SNOW  28  27  96 NE25G32   29.83F VSB 1   WCI  13
CHARLES CITY * SNOW      18  16  93 NE26G38   29.97S VSB 1/4 WCI  -1
CLINTON *      CLOUDY    28  27  93 NE24G30   29.91R VSB 3/4 WCI  14
DECORAH *      SNOW      16  12  86 NE20G26   30.00F VSB 1/2 WCI  -1
DUBUQUE        HVY SNOW  19  16  88 NE21      29.93F VSB 1/4 WCI   3
MONTICELLO *   SNOW      21  21 100 NE18G29   29.90S VSB 1/2 WCI   6
OELWEIN *      SNOW      19  16  86 NE26G36   29.92S VSB 1/4 WCI   1
WATERLOO       SNOW      20  18  92 NE25G35   29.92S VSB 1/2 WCI   2
$$

IAZ064-065-067-068-078-011500-
   EAST CENTRAL IOWA

CITY           SKY/WX    TMP DP  RH WIND       PRES   REMARKS
DAVENPORT      SNOW      30  28  92 E20       29.85F VSB 1/2 WCI  17
IOWA CITY      LGT SNOW  30  28  92 NE17G30   29.84S VSB 1   WCI  18
MT. PLEASANT * LGT SNOW  32  32 100 NE6       29.78F WCI  26
MUSCATINE *    LGT SNOW  34  32  93 NE14      29.82F VSB 1   WCI  24
QUAD CITIES    SNOW      32  30  92 NE16      29.84S VSB 1/2 WCI  21
$$

IAZ062-063-075>077-085>089-095>099-011500-
   SOUTHEAST IOWA

CITY           SKY/WX    TMP DP  RH WIND       PRES   REMARKS
BURLINGTON     LGT SNOW  32  32 100 E8        29.77F VSB 3/4 WCI  25
FAIRFIELD *    LGT SNOW  32  32 100 NE9       29.78S WCI  24
FORT MADISON * LGT SNOW  32  32 100 CALM      29.78S VSB 1
KEOKUK *       LGT SNOW  32  32 100 E7        29.75F WCI  26
OSKALOOSA *    LGT SNOW  32  31  97 E9        29.78S WCI  24
OTTUMWA        LGT SNOW  32  32 100 NE12      29.77S FOG     WCI  23
WASHINGTON *   LGT SNOW  32  32 100 NE14      29.79F WCI  22
$$

ABBREVIATIONS USED IN REMARKS
   TC - TEMPERATURES IN CELSIUS
  WCI - WIND CHILL INDEX
   HX - HEAT INDEX
  VSB - VISIBILITY
$$


USA.gov is the U.S. government's official web portal to all federal, state and local government web resources and services.